[[{"header":{"parameterUnit":"m.s-1","parameterCategory":1,"la1":30.2991,"la2":30.254,"lo1":-89.0895,"lo2":-89.0444,"dy":0.0017,"dx":0.0017,"nx":28,"ny":28,"refTime":"2024-07-27T03:00:00:Z","depth":0,"parameterNumber":2,"parameterNumberName":"U-component_of_WINDS"},"data":[0,0,0,0,0,0,0,0,0,0,0,0,0,0,0,0,0,0,0,0,0,0,0,0,0,0,0,0,0,0,0,0,0,0,0,0,0,0,0,0,0,0,0,0,0,0,0,0,0,0,0,0,0,0,0,0,0,0,0.4104,0.4104,0,0.4051,0.4051,0.405,0.4011,0.401,0.401,0.401,0.3954,0.3953,0.3952,0,0,0,0,0,0,0,0,0,0,0,0,0,0.4169,0.4168,0.4104,0.4104,0.4103,0.4052,0.4051,0.405,0.4011,0.401,0.401,0.401,0.3954,0.3953,0.3951,0,0,0,0,0,0,0,0,0,0,0,0,0,0.4131,0.4168,0.4104,0.4077,0.4074,0.4052,0.4051,0.405,0.4011,0.401,0.401,0.4009,0.3955,0.3953,0.3951,0.3951,0,0,0.3946,0.3945,0,0,0,0,0,0,0,0,0.4133,0.4129,0.4082,0.4079,0.4076,0.4037,0.4053,0.4017,0.4011,0.4035,0.401,0.4009,0.3982,0.3978,0.3969,0.3948,0.3946,0.3946,0.3945,0.3944,0.3943,0,0,0,0,0,0,0,0.4136,0.4131,0.4083,0.4081,0.4078,0.4067,0.4061,0.4046,0.4012,0.4033,0.403,0.4024,0.398,0.3971,0.3967,0.3945,0.3946,0.3944,0.3943,0.3942,0.3918,0.3919,0,0,0,0,0,0,0.4143,0.4133,0.4085,0.4082,0.4104,0.4066,0.406,0.405,0.4012,0.4006,0.4025,0.4023,0.3974,0.3969,0.3965,0.396,0.3944,0.3942,0.3941,0.3918,0.3918,0.3919,0,0,0,0,0,0,0.4144,0.4139,0.4087,0.4107,0.4099,0.4066,0.4055,0.4049,0.404,0.4006,0.3999,0.4022,0.3973,0.3968,0.3954,0.3958,0.3941,0.394,0.3917,0.3918,0.3919,0.3952,0,0,0,0,0,0,0.4146,0.414,0.414,0.4107,0.4098,0.4078,0.4056,0.4049,0.4037,0.4034,0.4001,0.3995,0.3973,0.3957,0.3952,0.3955,0.3938,0.3917,0.3918,0.3918,0.395,0.3953,0.3956,0,0,0,0,0,0.4149,0.4151,0.414,0.4135,0.4098,0.4078,0.4073,0.4048,0.4038,0.4037,0.4015,0.3996,0.3959,0.3956,0.395,0.3953,0.3916,0.3917,0.3918,0.3949,0.3953,0.3956,0,0,0,0,0,0,0.4186,0.4147,0.4134,0.4126,0.4106,0.4072,0.407,0.4053,0.4035,0.4032,0.4001,0.3994,0.3983,0.3967,0.3964,0.3949,0.3935,0.3935,0.396,0.3964,0.3967,0.397,0.3937,0,0,0,0,0,0.4193,0.4181,0.4147,0.4143,0.4134,0.4104,0.4094,0.4076,0.4054,0.4045,0.4022,0.4,0.3983,0.3973,0.3955,0.3948,0.3939,0.3947,0.395,0.3952,0.3952,0.3945,0.3947,0.3922,0.3922,0.3922,0,0,0.4207,0.4185,0.4179,0.415,0.4132,0.412,0.4097,0.4085,0.4075,0.4043,0.4028,0.4011,0.3984,0.3973,0.3967,0.3959,0.3957,0.3953,0.3956,0.3954,0.3946,0.3949,0.3951,0.3922,0.3922,0.3922,0,0,0.4227,0.421,0.4204,0.4186,0.416,0.4139,0.4138,0.4106,0.4093,0.4079,0.4054,0.4041,0.4013,0.3995,0.3982,0.3993,0.3975,0.3989,0.4004,0.3997,0.3999,0.4001,0.4003,0.4005,0.3989,0.3989,0.3989,0,0.4248,0.4229,0.4203,0.4191,0.4179,0.415,0.4143,0.4127,0.4096,0.4087,0.4079,0.4042,0.4022,0.4006,0.4009,0.4,0.3996,0.3992,0.4001,0.4003,0.4004,0.4006,0.4007,0.3991,0.399,0.399,0.399,0,0.4255,0.4242,0.424,0.4211,0.4198,0.419,0.4161,0.4151,0.4134,0.4114,0.4098,0.4073,0.405,0.4045,0.4028,0.4025,0.4021,0.4008,0.3992,0.4008,0.4009,0.401,0.3993,0.3992,0.3992,0.3991,0,0,0.4296,0.4252,0.4252,0.4238,0.4206,0.4195,0.4184,0.4161,0.4152,0.4132,0.4121,0.4097,0.4084,0.4069,0.405,0.4045,0.4053,0.4032,0.403,0.4035,0.4046,0.4056,0.4057,0.4041,0.4041,0.4041,0.4048,0,0.431,0.4289,0.4265,0.4252,0.4238,0.4211,0.4201,0.418,0.4161,0.4146,0.4125,0.4108,0.4093,0.4083,0.4077,0.4054,0.4055,0.4053,0.4029,0.4028,0.4035,0.4058,0.4068,0.4075,0.4048,0.4049,0.4049,0,0.4322,0.4303,0.429,0.4258,0.4251,0.4243,0.4219,0.4206,0.4181,0.4167,0.415,0.413,0.4115,0.4103,0.4082,0.4081,0.407,0.4057,0.4056,0.4052,0.4039,0.4053,0.4077,0.4078,0.4049,0.4049,0.4049,0,0.4351,0.4322,0.431,0.4299,0.4262,0.4256,0.4241,0.4215,0.4203,0.4182,0.4173,0.4151,0.4138,0.4121,0.4094,0.4088,0.4075,0.4061,0.4062,0.4062,0.4059,0.406,0.4081,0.4055,0.4055,0.4055,0.4054,0,0.4368,0.436,0.4322,0.4314,0.4304,0.4276,0.4266,0.4248,0.4225,0.4212,0.4187,0.4175,0.4142,0.4125,0.4104,0.4089,0.4084,0.4071,0.4065,0.4073,0.4074,0.4064,0.4062,0.4055,0.4055,0.4055,0.4055,0,0.4398,0.4373,0.4357,0.4323,0.4315,0.4309,0.4279,0.427,0.425,0.4233,0.4228,0.4196,0.4175,0.4147,0.4118,0.4104,0.409,0.4082,0.4099,0.4095,0.4098,0.4097,0.4112,0.4112,0.4087,0.4088,0.4088,0,0.4409,0.4403,0.4369,0.4359,0.4344,0.4328,0.4315,0.4286,0.4274,0.4244,0.4238,0.4216,0.4196,0.4164,0.4138,0.4115,0.4105,0.4112,0.4101,0.4108,0.4103,0.4103,0.4102,0.4114,0.4114,0.4115,0.4115,0,0.4432,0.442,0.4402,0.438,0.4366,0.4347,0.4327,0.432,0.4287,0.4274,0.4253,0.4238,0.4208,0.4185,0.4159,0.4141,0.4122,0.4118,0.4117,0.4124,0.4133,0.4127,0.4104,0.4118,0.4118,0.4117,0.4117,0.4117,0.4452,0.4444,0.4419,0.44,0.4382,0.4364,0.4353,0.4331,0.4314,0.4287,0.4272,0.4251,0.4224,0.4187,0.417,0.4152,0.4145,0.4144,0.4143,0.4143,0.4144,0.4137,0.4148,0.4147,0.4147,0.4147,0.4147,0,0.4472,0.4454,0.4437,0.441,0.4395,0.4379,0.4356,0.4344,0.4326,0.4304,0.4285,0.426,0.4238,0.421,0.4185,0.4177,0.4167,0.4171,0.4171,0.4167,0.4153,0.4156,0.4179,0.4179,0.4179,0.4179,0.4179,0.4179,0.448,0.4466,0.445,0.4426,0.4408,0.4388,0.4376,0.4358,0.434,0.4314,0.4296,0.4278,0.4252,0.4225,0.4204,0.4196,0.4187,0.4194,0.4183,0.4171,0.4168,0.4165,0.4167,0.4192,0.4192,0.4197,0.4197,0.4197]},{"header":{"parameterUnit":"m.s-1","parameterCategory":1,"la1":30.2991,"la2":30.254,"lo1":-89.0895,"lo2":-89.0444,"dy":0.0017,"dx":0.0017,"nx":28,"ny":28,"refTime":"2024-07-27T03:00:00:Z","depth":0,"parameterNumber":3,"parameterNumberName":"V-component_of_WINDS"},"data":[0,0,0,0,0,0,0,0,0,0,0,0,0,0,0,0,0,0,0,0,0,0,0,0,0,0,0,0,0,0,0,0,0,0,0,0,0,0,0,0,0,0,0,0,0,0,0,0,0,0,0,0,0,0,0,0,0,0,4.4536,4.4538,0,4.4697,4.4699,4.4701,4.4657,4.4654,4.465,4.4647,4.481,4.4818,4.4825,0,0,0,0,0,0,0,0,0,0,0,0,0,4.4185,4.4191,4.4536,4.4538,4.454,4.4697,4.4699,4.4702,4.4658,4.4654,4.465,4.4646,4.4808,4.4817,4.4826,0,0,0,0,0,0,0,0,0,0,0,0,0,4.4341,4.4193,4.4535,4.4537,4.4539,4.4697,4.4699,4.4702,4.4658,4.4653,4.4649,4.4644,4.4805,4.4816,4.4827,4.4993,0,0,4.4861,4.4865,0,0,0,0,0,0,0,0,4.4332,4.4354,4.4535,4.4537,4.4539,4.4652,4.4635,4.4799,4.466,4.4613,4.4647,4.4642,4.4762,4.4776,4.4817,4.5,4.5007,4.4862,4.4868,4.4873,4.4876,0,0,0,0,0,0,0,4.4321,4.4346,4.4599,4.4537,4.454,4.4528,4.4545,4.4666,4.4712,4.4617,4.4614,4.4634,4.4762,4.4806,4.482,4.501,4.4861,4.4871,4.4878,4.4882,4.5333,4.5338,0,0,0,0,0,0,4.4309,4.4338,4.4594,4.4604,4.4422,4.4538,4.4557,4.4621,4.4711,4.472,4.4638,4.4631,4.479,4.4807,4.4826,4.5023,4.4873,4.4883,4.489,4.5327,4.5334,4.534,0,0,0,0,0,0,4.4302,4.4332,4.4588,4.447,4.4502,4.4549,4.4621,4.4626,4.4671,4.4727,4.4735,4.4675,4.4787,4.481,4.4951,4.5028,4.4888,4.4898,4.5321,4.5329,4.5337,4.542,0,0,0,0,0,0,4.4292,4.433,4.4395,4.4472,4.4508,4.4712,4.4626,4.4633,4.469,4.4683,4.4764,4.4772,4.4785,4.4934,4.4962,4.5041,4.4907,4.5314,4.5325,4.5334,4.541,4.543,4.5446,0,0,0,0,0,4.4279,4.4412,4.4398,4.4429,4.459,4.4716,4.4737,4.4749,4.4697,4.4761,4.4797,4.477,4.5016,4.4949,4.498,4.5063,4.5309,4.5322,4.5333,4.5402,4.5426,4.5446,0,0,0,0,0,0,4.4342,4.4422,4.4408,4.457,4.4637,4.4709,4.479,4.4774,4.4856,4.4846,4.4857,4.4875,4.5018,4.5055,4.4979,4.5226,4.5155,4.5173,4.5197,4.5219,4.5237,4.5224,4.4916,0,0,0,0,0,4.4375,4.4472,4.4536,4.4672,4.4707,4.4743,4.4798,4.4801,4.4871,4.4898,4.4944,4.5012,4.5103,4.5164,4.5252,4.5416,4.5431,4.5488,4.5506,4.552,4.5536,4.5621,4.5646,4.5379,4.5379,4.5379,0,0,4.4443,4.4499,4.4559,4.4686,4.4738,4.4836,4.4767,4.4874,4.4946,4.4914,4.5049,4.5085,4.5161,4.5313,4.5382,4.5348,4.5613,4.5536,4.5547,4.5554,4.5636,4.5662,4.5684,4.5387,4.5386,4.5384,0,0,4.4617,4.4671,4.4788,4.4842,4.4921,4.4944,4.4973,4.5047,4.507,4.5205,4.5182,4.5268,4.5427,4.548,4.5529,4.5721,4.5698,4.5749,4.5842,4.5925,4.5946,4.5965,4.603,4.6054,4.5764,4.5765,4.5765,0,4.4692,4.484,4.4851,4.496,4.5014,4.4991,4.5108,4.516,4.5264,4.5301,4.5262,4.5459,4.5509,4.5671,4.5717,4.5758,4.5789,4.5739,4.5943,4.5961,4.5979,4.6041,4.6066,4.577,4.577,4.5769,4.5768,0,4.4926,4.5028,4.5114,4.5214,4.5279,4.5392,4.5418,4.5483,4.548,4.5506,4.5643,4.5701,4.5799,4.5838,4.5837,4.6,4.5975,4.594,4.5868,4.601,4.6068,4.6092,4.5778,4.5776,4.5774,4.5773,0,0,4.5144,4.5248,4.5279,4.5323,4.5408,4.5487,4.5597,4.5693,4.5746,4.5819,4.5909,4.6044,4.601,4.6065,4.6069,4.6143,4.6287,4.6097,4.6099,4.6128,4.6466,4.649,4.6518,4.6273,4.6278,4.6281,4.6458,0,4.5323,4.5518,4.553,4.5706,4.5799,4.5776,4.5872,4.5934,4.5961,4.6042,4.6072,4.6166,4.6116,4.6148,4.622,4.6254,4.6354,4.6242,4.6355,4.6359,4.6334,4.6549,4.6576,4.674,4.6482,4.6486,4.6488,0,4.5558,4.5636,4.5821,4.589,4.593,4.6016,4.6103,4.6182,4.625,4.6265,4.6325,4.6318,4.6429,4.6355,4.6506,4.6429,4.6476,4.6499,4.6506,4.6515,4.6431,4.6561,4.6794,4.6817,4.6525,4.6522,4.652,0,4.5694,4.5847,4.5976,4.6015,4.61,4.616,4.6198,4.6261,4.6317,4.6393,4.6429,4.6517,4.6564,4.6632,4.6648,4.6593,4.6798,4.6726,4.6811,4.681,4.6853,4.685,4.7093,4.6888,4.6888,4.6887,4.6887,0,4.5891,4.6005,4.6038,4.6117,4.6242,4.6255,4.6378,4.6412,4.6468,4.6552,4.6539,4.6617,4.6635,4.6717,4.6731,4.6852,4.6874,4.6887,4.6889,4.6887,4.6885,4.6916,4.6904,4.6894,4.6892,4.6891,4.689,0,4.6064,4.6092,4.6231,4.6299,4.6319,4.6408,4.6465,4.654,4.6565,4.6671,4.6697,4.6736,4.6831,4.6855,4.6969,4.6977,4.712,4.7112,4.7097,4.7095,4.7178,4.7169,4.7448,4.7484,4.7258,4.726,4.7262,0,4.6187,4.6273,4.635,4.6406,4.6446,4.6536,4.6592,4.6607,4.6666,4.6749,4.6813,4.6907,4.6983,4.7136,4.7173,4.7259,4.7252,4.7344,4.7265,4.7259,4.725,4.7243,4.725,4.7358,4.736,4.7362,4.7364,0,4.6401,4.6409,4.6492,4.6579,4.6646,4.6715,4.6781,4.6827,4.685,4.6917,4.7014,4.7073,4.7188,4.728,4.7367,4.7404,4.7387,4.7389,4.7412,4.741,4.7397,4.7402,4.7135,4.7382,4.738,4.7379,4.7378,4.7377,4.6551,4.6625,4.669,4.6781,4.6832,4.6893,4.6966,4.7,4.7081,4.7176,4.718,4.7285,4.7348,4.7462,4.7505,4.7586,4.7557,4.7592,4.7601,4.7609,4.7614,4.7386,4.7602,4.7601,4.7601,4.76,4.76,0,4.6761,4.6801,4.6885,4.6977,4.7048,4.7027,4.7098,4.7158,4.7251,4.7312,4.7386,4.7496,4.7585,4.7629,4.7716,4.7773,4.7767,4.7795,4.779,4.7798,4.7636,4.7606,4.7798,4.7798,4.7798,4.7798,4.7797,4.7797,4.6879,4.7002,4.7018,4.7166,4.7205,4.7308,4.735,4.7405,4.7453,4.7577,4.765,4.7679,4.7732,4.7823,4.7902,4.7913,4.7944,4.7976,4.7982,4.783,4.781,4.779,4.7761,4.7983,4.7983,4.8136,4.8138,4.8139]}]]